Date,TemperatureHighF,TemperatureAvgF,TemperatureLowF,DewpointHighF,DewpointAvgF,DewpointLowF,HumidityHigh,HumidityAvg,HumidityLow,PressureMaxIn,PressureMinIn,WindSpeedMaxMPH,WindSpeedAvgMPH,GustSpeedMaxMPH,PrecipitationSumIn
2013-6-1,79.7,71.6,64.6,65.6,59.7,54.9,89,68,46,29.91,29.74,16,7,25,0.21
2013-6-2,72.7,66.7,55.8,61.8,51.8,38.7,81,60,47,30.00,29.68,16,7,23,0.00
2013-6-3,66.7,59.1,46.4,40.3,37.8,33.3,61,46,38,30.12,29.97,11,4,16,0.00
2013-6-4,72.9,64.2,52.2,45.1,41.9,36.1,60,45,37,30.21,30.09,9,3,12,0.00
2013-6-5,73.8,64.4,54.5,45.9,39.7,31.7,50,41,37,30.21,29.97,10,4,15,0.00
2013-6-6,69.3,62.3,57.0,46.6,41.7,36.4,51,47,44,30.00,29.85,12,5,16,0.00
2013-6-7,62.4,57.9,52.7,48.3,45.7,41.2,77,64,51,29.97,29.85,11,4,14,0.00
2013-6-8,75.2,66.2,58.3,50.4,48.1,45.5,68,53,42,30.12,29.91,7,2,10,0.00
2013-6-9,76.3,68.7,61.0,55.0,50.9,46.3,71,54,42,30.15,29.97,14,6,20,0.00
2013-6-10,72.5,66.8,61.9,65.6,60.7,48.2,91,81,51,29.97,29.74,8,3,11,2.17
2013-6-11,81.3,72.4,64.9,63.5,59.6,56.0,90,67,44,29.94,29.80,12,4,15,0.00
2013-6-12,80.4,73.0,66.2,62.5,58.8,53.9,77,62,52,29.97,29.71,11,2,18,0.00
2013-6-13,75.9,69.2,62.2,63.3,55.1,48.9,92,64,41,29.94,29.53,22,8,28,2.72
2013-6-14,76.1,68.9,61.2,54.1,50.0,45.6,74,52,39,30.12,29.94,12,5,18,0.00
2013-6-15,81.0,69.9,59.4,56.9,52.6,47.9,68,55,41,30.12,29.97,12,3,16,0.00
2013-6-16,81.7,72.7,65.7,63.9,57.3,46.3,88,61,41,29.97,29.80,13,5,21,0.72
2013-6-17,86.2,76.1,62.4,58.1,52.9,46.2,62,45,34,29.97,29.85,13,3,20,0.00
2013-6-18,72.7,67.0,59.7,54.4,48.3,37.5,76,52,38,30.09,29.91,13,6,18,0.05
2013-6-19,76.1,66.5,52.9,49.7,43.4,33.8,53,43,36,30.21,30.09,10,4,14,0.00
2013-6-20,82.0,69.6,56.3,50.8,40.3,27.0,65,40,14,30.27,30.15,9,3,13,0.00
2013-6-21,82.0,82.0,82.0,32.9,32.9,32.9,17,17,17,30.21,30.21,3,3,13,0.00
2013-6-22,82.0,82.0,82.0,32.9,32.9,32.9,17,17,17,30.21,30.21,3,3,4,0.00
2013-6-23,88.3,80.4,69.8,64.9,61.0,32.9,79,54,17,30.21,29.97,17,5,24,0.12
2013-6-24,87.8,80.0,69.8,65.0,60.9,56.6,69,53,42,30.12,29.94,18,5,23,0.00
2013-6-25,84.2,75.0,68.5,69.0,63.5,58.3,85,68,52,30.06,29.85,15,4,23,1.21
2013-6-26,84.0,75.5,67.8,65.6,63.4,60.1,86,67,50,29.94,29.77,12,3,23,0.39
2013-6-27,84.0,73.0,66.9,69.8,65.1,56.3,89,77,52,29.83,29.68,16,2,23,2.33
2013-6-28,79.7,68.3,64.2,65.8,58.9,44.3,92,74,41,29.71,29.56,19,2,25,2.61
2013-6-29,73.0,66.9,63.0,64.2,60.5,54.4,94,81,63,29.77,29.56,11,2,14,1.50
2013-6-30,77.9,69.4,61.0,58.1,53.4,49.1,82,59,41,29.97,29.74,14,5,20,0.00